User: anonymous   Login
Location: Saint Peter Port
(49.4500°N, 2.5330°W)
Time: 12:00:01
(UTC+01:00)
Language:

Cosmos 2242 Rocket - Orbit

View from above orbital plane
View from above orbital plane
View from above satellite
View from above satellite

Ground track
Ground track

The orbit data is extracted from the following two-line orbital elements,

1 22627U 93024B   15115.03925392  .00000615  00000-0  81965-4 0  9998
2 22627 082.5201 108.2172 0024121 018.0896 038.4948 14.77875743186321
Epoch (UTC): 25 April 2015 00:56:31
Eccentricity: 0.0024121
inclination: 82.5201°
perigee height: 619 km
apogee height: 653 km
right ascension of ascending node: 108.2172°
argument of perigee: 18.0896°
revolutions per day: 14.77875743
mean anomaly at epoch: 38.4948°
orbit number at epoch: 18632

The dashed part of the orbit path shows where the satellite is in the earth's shadow,  

DLR